SCP
0 0 0 0 0 0 0 0 0 0 0 0 0 0 0 0 0 0 0 0 0 0 0 0 0 0 0 0 0 0 0 0 0 0 0 0 0 0
0 0 0 0 0 0 0 0 0 0 0 0 0 0 0 0 0 0 0 0 0 0 0 0 0 0 0 0 0 0 0 0 0 0 0 0 0 0
0 0 0 0 0 0 0 0 0 0 0 0 0 0 0 0 0 0 0 0 0 0 0 0 0 0 0 0 0 0 0 0 0 0 0 0 0 0
0 0 0 0 0 0 0 0 0 0 0 0 0 0 0 0 0 0 0 0 0 0 0 0 0 0 0 0 0 0 0 0 0 0 0 0 0 0
0 0 0 0 0 0 0 0 0 0 0 0 0 0 0 0 0 0 0 0 0 0 0 0 0 0 0 0 0 0 0 0 0 0 0 0 0 0
0 0 0 0 0 0 0 0 0 0 0 0 0 0 0 0 0 0 0 0 0 0 0 0 0 0 0 0 0 0 0 0 0 0 0 0 0 0
0 0 0 0 0 0 0 0 0 0 0 0 0 0 0 0 0 0 0 0 0 0 0 0 0 0 0 0 0 0 0 0 0 0 0 0 0 0
0 0 0 0 0 0 0 0 0 0 0 0 0 0 0 0 0 0 0 0 0 0 0 0 0 0 0 0 0 0 0 0 0 0 0 0 0 0
0 0 0 0 0 0 0 0 0 0 0 0 0 0 0 0 0 0 0 0 0 0 0 0 0 0 0 0 0 0 0 0 0 0 0 0 0 0
0 0 0 0 0 0 0 0 0 0 0 0 0 0 0 0 0 0 0 0 0 0 0 0 0 0 0 0 0 0 0 0 0 0 0 0 0 0
0 0 0 0 0 0 0 0 0 0 0 0 0 0 0 0 0 0 0 0 0 0 0 0 0 0 0 0 0 0 0 0 0 0 0 0 0 0
0 0 0 0 0 0 0 0 0 0 0 0 0 0 0 0 0 0 0 0 0 0 0 0 0 0 0 0 0 0 0 0 0 0 0 0 0 0
0 0 0 0 0 0 0 0 0 0 0 0 0 0 0 0 0 0 0 0 0 0 0 0 0 0 0 0 0 0 0 0 0 0 0 0 0 0
0 0 0 0 0 0 0 0 0 0 0 0 0 0 0 0 0 0 0 0 0 0 0 0 0 0 0 0 0 0 0 0 0 0 0 0 0 0
0 0 0 0 0 0 0 0 0 0 0 0 0 0 0 0 0 0 0 0 0 0 0 0 0 0 0 0 0 0 0 0 0 0 0 0 0 0
0 0 0 0 0 0 0 0 0 0 0 0 0 0 0 0 0 0 0 0 0 0 0 0 0 0 0 0 0 0 0 0 0 0 0 0 0 0
0 0 0 0 0 0 0 0 0 0 0 0 0 0 0 0 0 0 0 0 0 0 0 0 0 0 0 0 0 0 0 0 0 0 0 0 0 0
0 0 0 0 0 0 0 0 0 0 0 0 0 0 0 0 0 0 0 0 0 0 0 0 0 0 0 0 0 0 0 0 0 0 0 0 0 0
0 0 0 0 0 0 0 0 0 0 0 0 0 0 0 0 0 0 0 0 0 0 0 0 0 0 0 0 0 0 0 0 0 0 0 0 0 0
0 0 0 0 0 0 0 0 0 0 0 0 0 0 0 0 0 0 0 0 0 0 0 0 0 0 0 0 0 0 0 0 0 0 0 0 0 0
0 0 0 0 0 0 0 0 0 0 0 0 0 0 0 0 0 0 0 0 0 0 0 0 0 0 0 0 0 0 0 0 0 0 0 0 0 0
0 0 0 0 0 0 0 0 0 0 0 0 0 0 0 0 0 0 0 0 0 0 0 0 0 0 0 0 0 0 0 0 0 0 0 0 0 0
0 0 0 0 0 0 0 0 0 0 0 0 0 0 0 0 0 0 0 0 0 0 0 0 0 0 0 0 0 0 0 0 0 0 0 0 0 0
Wind_Speed
4 4 3 3 3 3 3 3 3 3 4 4 3 3 3 3 5 4 4 6 8 8 9 10 11 13 15 17 19 20 21 21 22 22 22 23 23 23
3 3 3 3 3 3 3 3 3 4 4 4 4 4 4 4 4 4 5 8 8 8 9 10 11 12 13 15 16 18 19 20 21 21 21 21 21 22
4 3 4 4 3 3 3 3 3 3 4 4 3 3 3 4 4 3 4 4 4 9 10 11 11 12 13 14 15 16 17 19 20 21 21 21 21 21
5 4 5 4 4 4 3 4 4 4 4 5 4 3 4 5 4 4 4 4 4 8 10 11 11 12 12 13 14 15 16 18 18 19 20 20 21 21
5 5 5 4 5 4 4 4 4 4 4 4 4 3 3 3 3 4 4 3 4 6 8 10 11 11 12 12 13 14 16 17 17 17 18 19 19 20
5 5 6 6 6 6 5 5 5 4 4 4 4 4 4 4 2 3 3 3 3 3 5 5 8 10 11 12 13 14 15 15 16 16 17 17 17 18
5 5 6 8 10 8 6 5 5 4 4 4 4 3 3 3 3 2 3 3 3 3 2 3 3 4 5 8 11 13 14 15 15 16 16 17 17 17
6 6 6 8 10 11 12 10 9 7 6 5 4 5 6 5 4 3 2 2 3 2 2 3 2 4 4 4 7 9 11 14 15 16 16 16 16 16
6 6 6 7 8 6 8 10 10 12 12 8 7 8 6 6 5 4 4 4 5 3 2 3 2 3 3 3 7 8 10 12 14 15 15 15 16 16
7 7 7 8 8 7 7 7 7 7 8 7 8 9 8 7 6 6 6 4 4 3 3 3 2 2 2 2 5 7 9 10 12 13 14 14 15 15
7 7 7 7 11 11 7 7 7 7 10 12 12 12 13 12 8 4 3 3 4 4 3 3 3 2 2 2 3 5 7 8 9 11 13 13 13 12
6 6 9 9 10 9 6 6 8 8 6 6 7 8 8 9 11 8 6 5 4 4 4 4 3 2 2 2 2 2 3 5 7 9 11 12 13 8
5 5 5 9 10 10 7 6 10 9 5 6 6 5 5 5 6 6 7 7 6 6 4 4 3 3 3 2 1 2 3 2 3 4 8 11 12 11
7 6 6 10 10 10 8 10 13 10 5 5 5 5 5 6 6 6 8 8 8 8 7 6 4 4 4 3 2 2 2 3 3 3 4 7 8 9
7 9 10 11 11 9 12 14 11 6 5 6 7 7 6 6 5 4 5 6 7 7 7 7 6 5 4 4 3 3 2 3 4 4 4 5 5 5
6 7 10 11 10 11 10 8 6 6 7 7 6 6 5 4 5 4 4 4 4 4 5 7 8 7 5 4 4 4 4 4 4 5 4 4 4 4
3 2 3 4 5 5 5 6 5 5 7 7 7 6 5 5 5 4 4 4 4 5 4 4 5 5 6 5 4 4 4 4 5 6 5 4 4 5
3 4 5 6 7 7 6 6 5 6 7 7 7 7 6 6 5 4 4 5 5 5 5 5 4 3 2 3 5 5 5 4 4 6 5 5 5 5
5 6 7 7 7 7 6 7 7 6 6 6 7 7 6 6 5 5 5 4 5 5 5 5 6 6 6 5 4 6 6 5 5 5 5 3 4 5
6 7 8 7 7 7 7 7 6 6 5 5 6 6 6 6 6 5 5 6 5 5 4 4 6 7 7 5 3 3 7 6 6 6 4 3 3 4
7 7 8 7 7 7 7 6 6 6 6 5 5 6 6 6 6 6 6 7 6 5 6 6 6 8 4 4 3 2 2 4 5 5 6 5 4 4
7 7 7 7 6 6 6 6 5 6 6 5 5 5 5 5 6 7 6 6 6 6 6 4 4 5 4 5 5 4 4 3 5 8 7 3 5 7
7 7 6 6 6 5 5 6 6 5 5 5 5 5 5 5 5 5 6 6 5 5 5 4 4 4 4 5 5 4 6 6 4 4 4 7 4 6
Wind_Direction
259 260 252 251 244 234 218 199 205 261 280 276 281 284 283 269 264 248 242 244 241 240 241 243 240 235 228 222 220 220 220 217 216 215 214 215 216 218
254 261 262 256 257 249 235 224 204 210 249 261 259 274 291 290 270 257 253 251 243 240 241 243 242 238 232 225 221 220 218 217 215 214 212 213 214 214
268 262 263 261 259 260 251 240 228 205 241 268 259 271 276 277 282 269 257 245 244 242 242 242 242 239 233 228 224 221 219 217 216 214 212 212 212 213
262 261 265 268 261 258 253 250 245 227 223 259 272 272 266 264 264 264 257 245 241 247 245 244 242 240 235 230 227 223 219 217 215 214 212 212 212 212
248 247 254 256 259 257 253 252 251 253 226 236 260 261 267 268 274 273 263 256 251 248 247 248 245 241 238 233 229 225 220 216 215 212 211 211 211 211
249 246 246 242 245 250 254 249 247 251 245 241 254 262 264 270 260 266 278 259 256 256 249 246 246 244 238 233 230 225 220 217 215 214 213 212 211 210
258 254 253 253 250 246 249 243 240 239 241 240 250 259 261 264 254 246 256 269 265 240 252 253 246 244 236 232 228 224 220 219 217 215 212 210 209 208
255 260 264 266 265 262 260 255 236 229 229 230 238 240 249 243 244 243 243 255 275 253 220 257 223 241 238 229 226 222 220 218 215 212 209 208 206 206
245 252 264 267 267 263 268 272 263 250 233 222 229 237 240 234 230 243 234 226 235 237 206 255 234 239 238 235 227 223 223 222 218 213 209 206 205 203
242 242 248 262 265 256 258 264 260 258 248 236 229 237 239 234 223 228 232 240 252 245 194 236 239 238 240 239 229 221 221 221 217 211 207 204 202 201
249 247 245 253 262 262 253 255 264 266 261 248 238 240 244 243 231 223 226 223 248 246 205 211 224 223 235 243 232 219 216 216 213 208 202 198 195 193
257 255 252 254 258 259 241 240 255 262 265 272 261 256 251 253 243 221 212 213 221 241 213 195 204 185 241 248 226 215 213 216 211 206 200 194 185 185
250 253 251 254 255 257 246 233 245 254 259 257 261 260 255 246 241 226 214 210 212 227 212 180 189 189 202 234 243 213 203 199 195 198 198 194 187 183
240 245 247 253 256 258 256 251 254 256 251 251 254 254 249 247 242 233 225 222 221 222 205 181 187 190 188 199 224 213 199 191 183 183 179 181 189 189
237 244 252 259 263 265 260 258 256 244 234 240 245 247 242 242 244 242 238 230 232 231 211 193 192 189 189 200 198 187 188 194 185 181 178 179 178 175
244 258 266 267 263 259 263 261 242 228 225 236 240 245 243 241 241 232 230 221 222 235 219 204 201 192 200 203 193 193 184 184 180 181 174 177 172 175
232 261 264 268 269 266 262 255 244 232 232 236 238 242 241 240 242 229 218 212 214 220 217 207 205 204 201 182 190 196 190 187 180 171 171 177 181 179
196 243 256 257 258 261 262 262 250 238 234 231 231 233 234 234 238 229 214 210 216 215 209 196 180 179 192 222 197 188 188 187 177 173 167 172 180 178
212 242 249 254 255 255 254 253 253 247 236 231 231 231 229 228 228 227 219 216 219 215 206 189 184 190 204 213 208 190 181 177 171 177 176 169 175 175
224 239 247 250 251 251 251 250 251 252 241 235 233 230 223 220 221 220 215 215 216 209 203 193 194 197 203 197 181 189 185 173 177 178 164 126 104 112
232 238 244 247 249 248 248 247 245 245 241 234 232 228 221 214 218 219 215 216 211 205 207 210 209 191 163 136 146 167 170 171 167 163 154 144 139 144
243 244 246 247 248 247 246 245 245 243 241 236 233 228 219 211 216 216 212 206 205 206 210 204 171 163 164 177 180 169 156 130 93 91 84 109 161 172
240 242 245 249 249 247 245 244 244 244 238 234 232 225 217 213 214 211 210 205 198 198 193 182 172 175 182 178 170 161 153 147 137 116 57 23 81 112